Butte, MT

12:49 PM MST on January 20, 2018 (GMT -0700)
Mooney

Weather History for KBTM - June, 2012

Change the Weather History Date:

Wednesday, June 27, 2012

  Actual Average Record
Temperature  
Mean Temperature 55 °F 59 °F  
Max Temperature 72 °F 75 °F 94 °F (2015)
Min Temperature 38 °F 43 °F 31 °F (1949)
Degree Days  
Heating Degree Days 10 7  
Month to date heating degree days 266 269  
Since 1 June heating degree days 266 269  
Since 1 July heating degree days 8578 9201  
Cooling Degree Days 0 0  
Month to date cooling degree days 15 0  
Year to date cooling degree days 15 0  
Since 1 June cooling degree days 15 0  
Growing Degree Days 6 (Base 50)    
Moisture  
Dew Point 23 °F    
Average Humidity 36    
Maximum Humidity 60    
Minimum Humidity 11    
Precipitation  
Precipitation 0.00 in 0.06 in 0.62 in (1944)
Month to date precipitation 1.05 2.10  
Year to date precipitation 4.95 7.01  
Sea Level Pressure  
Sea Level Pressure 29.98 in    
Wind  
Wind Speed 7 mph (West)    
Max Wind Speed 21 mph    
Max Gust Speed 28 mph    
Visibility 10 miles    
Events      
T = Trace of Precipitation, MM = Missing Value Source: NWS Daily Summary

Daily Weather History Graph

Daily Weather History Graph

Search for Another Location

Airport or City:

Trip Planner

Search our weather history database for the weather conditions in past years. The results will help you decide how hot, cold, wet, or windy it might be!

Date:

Astronomy

Jun. 27, 2012 Rise Set
Actual Time 5:41 AM MDT 9:24 PM MDT
Civil Twilight 5:03 AM MDT 10:03 PM MDT
Nautical Twilight 4:11 AM MDT 10:54 PM MDT
Astronomical Twilight 3:00 AM MDT 12:05 AM MDT
Moon 2:40 PM MDT (6/27) 12:58 AM MDT (6/27)
Length of Visible Light 16h 59m
Length of Day
15h 43m
First Quarter, 57% of the Moon is Illuminated
Jun 27
First Quarter
Jul 3
Full
Jul 10
Last Quarter
Jul 18
New
Jul 26
First Quarter

Hourly Weather History & Observations

Time (MDT) Temp. Windchill Dew Point Humidity Pressure Visibility Wind Dir Wind Speed Gust Speed Precip Events Conditions
12:53 AM 46.0 °F 44.8 °F 30.9 °F 56% 29.92 in 10.0 mi NNE 3.5 mph - N/A   Clear
1:53 AM 46.0 °F 42.5 °F 28.0 °F 50% 29.92 in 10.0 mi South 6.9 mph - N/A   Clear
2:53 AM 46.9 °F - 26.1 °F 44% 29.94 in 10.0 mi NW 6.9 mph - N/A   Clear
3:53 AM 45.0 °F 43.5 °F 27.0 °F 49% 29.96 in 10.0 mi West 3.5 mph - N/A   Clear
4:53 AM 42.1 °F - 28.0 °F 58% 29.99 in 10.0 mi Calm Calm - N/A   Clear
5:53 AM 41.0 °F - 28.0 °F 60% 30.03 in 10.0 mi Calm Calm - N/A   Clear
6:53 AM 41.0 °F - 28.9 °F 62% 30.04 in 10.0 mi Calm Calm - N/A   Clear
7:53 AM 46.9 °F - 28.9 °F 50% 30.03 in 10.0 mi North 4.6 mph - N/A   Clear
8:53 AM 51.1 °F - 26.1 °F 38% 30.02 in 10.0 mi Variable 3.5 mph - N/A   Clear
9:53 AM 55.0 °F - 26.1 °F 33% 30.02 in 10.0 mi NNW 11.5 mph - N/A   Clear
10:53 AM 57.0 °F - 19.9 °F 24% 30.02 in 10.0 mi Variable 4.6 mph - N/A   Clear
11:53 AM 60.1 °F - 21.0 °F 22% 30.01 in 10.0 mi Variable 5.8 mph 20.7 mph N/A   Clear
12:53 PM 63.0 °F - 16.0 °F 16% 29.99 in 10.0 mi Variable 6.9 mph 19.6 mph N/A   Clear
1:53 PM 66.9 °F - 15.1 °F 14% 29.96 in 10.0 mi West 10.4 mph 19.6 mph N/A   Clear
2:53 PM 66.9 °F - 15.1 °F 14% 29.96 in 10.0 mi SW 10.4 mph 20.7 mph N/A   Clear
3:53 PM 70.0 °F - 12.9 °F 11% 29.94 in 10.0 mi SW 10.4 mph 26.5 mph N/A   Clear
4:53 PM 71.1 °F - 16.0 °F 12% 29.95 in 10.0 mi WSW 12.7 mph 19.6 mph N/A   Clear
5:53 PM 71.1 °F - 15.1 °F 12% 29.96 in 10.0 mi West 17.3 mph 27.6 mph N/A   Clear
6:53 PM 72.0 °F - 16.0 °F 12% 29.94 in 10.0 mi WNW 16.1 mph 21.9 mph N/A   Clear
7:53 PM 71.1 °F - 18.0 °F 13% 29.93 in 10.0 mi WNW 8.1 mph - N/A   Clear
8:53 PM 68.0 °F - 21.9 °F 17% 29.93 in 10.0 mi WNW 6.9 mph - N/A   Clear
9:53 PM 61.0 °F - 26.1 °F 26% 29.97 in 10.0 mi West 5.8 mph - N/A   Clear
10:53 PM 55.9 °F - 27.0 °F 33% 30.01 in 10.0 mi Calm Calm - N/A   Clear
11:53 PM 48.9 °F - 28.0 °F 44% 30.03 in 10.0 mi SSE 6.9 mph - N/A   Clear